sat.trackr.live / text

‹ back to catalog

GLOBALSTAR M069

NORAD 31573 · 2007-020C

PAYLOAD ACTIVE UNKNOWN

§ Identity

Operator
Country
GLOB
Launch date
2007-05-29
Launch site
TYMSC
Launch vehicle
Mass (kg)
RCS (m²)
2.42

Purposes: comms

External: N2YO · Heavens-Above · Gunter

§ Orbital elements

Epoch: 2026-05-24T17:36:15.085152Z

Period
117.70 min
Inclination
52.0045°
Eccentricity
0.0002674
Mean motion
12.23470479 rev/d
Perigee alt
1,575.3 km
Apogee alt
1,579.6 km
Semi-major
7,955.6 km
B*
2.5508e-4
RAAN
318.5088°
Arg perigee
100.6778°
Mean anomaly
273.4600°
Rev number
87,593

§ Raw data

GLOBALSTAR M0691 31573U 07020C   26144.73350793 -.00000065  00000+0  25508-3 0  99962 31573  52.0045 318.5088 0002674 100.6778 273.4600 12.23470479875931

JSON: /api/v1/satellites/31573 · /tle

For live sub-satellite position, see the globe view (requires WebGL).

§ Visibility from observer

Set your observer location to see the next 7 days of passes ≥ 10°. The values pass through the URL so the page stays shareable.

No JS? Fill the form by hand. The geolocation button needs JavaScript.